Regional Weather Roundup
Issued by NWS Charleston, SC

Current Version | Previous Version | Graphics & Text | Print | Product List | Glossary On
Versions: 1 2 3 4 5 6 7 8 9 10 11 12 13 14 15 16 17 18 19 20 21 22 23 24 25 26 27 28 29 30 31 32 33 34 35 36 37 38 39 40 41 42 43 44 45 46 47 48 49 50
000
ASUS42 KCHS 222010
RWRCHS
REGIONAL WEATHER ROUNDUP
NATIONAL WEATHER SERVICE CHARLESTON SC
400 PM EDT TUE JUL 22 2014

NOTE: "FAIR" INDICATES FEW OR NO CLOUDS BELOW 12,000 FEET WITH NO
SIGNIFICANT WEATHER AND/OR OBSTRUCTIONS TO VISIBILITY.

NOT ALL STATIONS ARE QUALITY CONTROLLED BY THE NATIONAL
WEATHER SERVICE. USE DATA WITH CAUTION...ESPECIALLY
DEWPOINT OBSERVATIONS.

SCZ027-030-031-034>040-042>050-222100-
...SOUTH CAROLINA...

CITY           SKY/WX    TMP DP  RH WIND       PRES   REMARKS
N CHARLESTON   PTSUNNY   86  74  67 SE9       30.08F HX  94
WATERFRONT PRK   N/A     82 N/A N/A E22         N/A
FORT JOHNSON   NOT AVBL
MOUNT PLEASANT FAIR      84  73  70 SE6       30.09F HX  91
JOHNS ISLAND   PTCLDY    82  64  54 E7        30.09F
PINOPOLIS        N/A     84  75  74 W2        30.01F HX  92
MONCKS CORNER    N/A     88  77  70 CALM      30.08F HX 100
SUMMERVILLE    FAIR      88  73  62 E6        30.09S HX  96
BEAUFORT MCAS  PTSUNNY   87  76  69 S10       30.07S HX  97
BEAUFORT ARPT  FAIR      86  77  74 SE5       30.06F HX  97
HILTON HEAD IS MOSUNNY   84  75  74 E6        30.09S HX  92
GEORGETOWN     NOT AVBL
WALTERBORO     MOCLDY    88  72  58 SE15      30.08S HX  94
ORANGEBURG     MOSUNNY   86  71  60 E10       30.08S HX  91
BARNWELL       FAIR      90  70  51 SW3       30.07F HX  95
AIKEN          CLOUDY    82  77  83 NE6       30.11S HX  91
MANNING        CLOUDY    79 N/A N/A MISG      30.10R VSB 3/4
KINGSTREE      NOT AVBL
COLUMBIA       PTSUNNY   90  70  51 E9        30.07F HX  95
SUMTER         PTSUNNY   87  76  69 VRB7      30.08F HX  97
FLORENCE       PTSUNNY   86  70  58 VRB3      30.09F HX  90
MYRTLE BEACH   LGT RAIN  81  77  89 SW9       30.11S
N MYRTLE BEACH CLOUDY    83  75  77 S10       30.09S THUNDER HX  90

$$

GAZ063-065-086>088-099>101-113>116-118-119-134-136>141-150-222100-
...GEORGIA...

CITY           SKY/WX    TMP DP  RH WIND       PRES   REMARKS
SAVANNAH ARPT  PTSUNNY   88  70  55 E5        30.06F HX  93
HUNTER AAF     PTSUNNY   87  76  69 E7        30.05F HX  97
FORT STEWART   MOSUNNY   89  72  56 E9        30.04F HX  96
STATESBORO     NOT AVBL
SYLVANIA       PTCLDY    89  74  61 CALM      30.07F HX  99
CLAXTON        MOCLDY    90  73  58 CALM      30.05F HX  98
THOMSON        PTSUNNY   84  78  82 N3        30.13S HX  95
AUGUSTA-BUSH   PTSUNNY   86  71  60 E6        30.06F HX  91
AUGUSTA-DANIEL MOSUNNY   88  72  58 VRB5      30.08F HX  94
SWAINSBORO     MOCLDY    90  73  58 NE6       30.07F HX  98
VIDALIA          N/A     86  72  62 CALM      30.06F HX  92
ALMA           LGT RAIN  79  75  87 NW6       30.05F FOG
WAYCROSS       CLOUDY    91  73  56 E6        30.03F HX  99
JESUP          NOT AVBL
BRUNSWICK      MOSUNNY   90  73  58 CALM      30.06F HX  98
SAINT SIMONS   SUNNY     85  74  69 E12       30.05F HX  92

$$

SCZ027-028-034-036>038-045-046-048>050-GAZ119-141-222100-
...LAKE AND SUPPLEMENTAL COASTAL OBSERVATIONS...

STATION/POSITION TIME  TEMP    WIND        PRES    WAVE   SWELL
                       AIR SEA DIR/SP/G            HT/PER HT/PER/DIR
                 (UTC) (F)     (DEG/KT/KT) (MB)    (FT/S) (FT/S/D)
UPR LAKE MARION  NOT AVBL
WINYAH BAY       NOT AVBL
LAKE MURRAY      1900   84      90/  7/  8 1017.9F
ACE BASIN NERRS  NOT AVBL
FORT PULASKI     2000   83     110/  7/ 11 1018.7R
SAPELO ISLAND    NOT AVBL

$$

ANZ835-935-AMZ111-154-330-350-352-354-374-450-454-472-222100-
...C-MAN AND BUOY OBSERVATIONS...

STATION/POSITION TIME  TEMP    WIND        PRES    WAVE   SWELL
                       AIR SEA DIR/SP/G            HT/PER HT/PER/DIR
                 (UTC) (F)     (DEG/KT/KT) (MB)    (FT/S) (FT/S/D)
FOLLY BEACH CMAN 1900   80     110/ 10/ 11 1019.8R
BUOY 41004       2000   79 82  140/ 10/ 12 1018.4F   3/ 8   3/ 8
BUOY 41008       2000   81 85  100/  8/ 10 1018.3F   2/ 7   2/120/ 7
5E ST. MARYS GA  2000      85                N/A     2/ 8
FRYING PAN BUOY  NOT AVBL
BUOY 41025       2000          VRB 16/ 19  1019.9S   4/ 4   2/140/ 7
CAPE LOOKOUT NC  1900   77     170/ 15/ 16 1020.0R
BUOY 41002       1933   82 83  190/ 12/ 14 1021.6F   4/ 7   3/110/ 7
BUOY 41010       2000   81 83  180/ 14/ 19 1019.3R   5/ 6
BUOY 41012       NOT AVBL
ST AUGUSTINE FL  2000   81      70/  9/ 10 1018.3F
CAPERS NEARSHORE 1900   80     110/  8/ 10   N/A
FRIPP NEARSHORE  NOT AVBL


$$



USA.gov is the U.S. government's official web portal to all federal, state and local government web resources and services.